Notices

What's New in latest Release from April 7th, 2021:

- Updated Glossary, including Speed of Maximum Gust, and Total Hourly Precipitation

- Updated national and regional climate services offices contacts and prices information

- Addition of station inventory lists for 1981-2010, 1971-2000, and 1961-1990 Normals.

If you haven't already, please take our survey and provide feedback about our website: https://eccc.sondage-survey.ca/f/LanguageSelection.aspx?s=442ca660-fcf1-47c0-95a9-59707d6fd709

Hourly Data Report for June 14, 2004

SHERBROOKE A
QUEBEC

45°26'00.000" N
71°41'00.000" W
241.40 m
7028124
71610
YSC

Download Data

Hourly Data (June 2004)
Hourly Data Report for June 14, 2004
TIME
LST
Temp Definition
°C
Dew Point Definition
°C
Rel Hum Definition
%
Precip. Amount Definition
mm

Wind Dir Definition
10's deg

Wind Spd Definition
km/h
Visibility Definition
km
Stn Press Definition
kPa
Hmdx Definition


Wind Chill Definition


Weather Definition


00:00 14.6 10.5 76   15 7 15.0 98.60      
01:00 16.3 10.5 69   13 9 15.0 98.58      
02:00 15.9 10.8 72   13 7 15.0 98.54      
03:00 15.5 11.1 75   13 4 15.0 98.50      
04:00 16.0 11.0 72   17 7 15.0 98.43      
05:00 16.7 10.8 68   17 7 15.0 98.44      
06:00 17.3 11.2 67   19 4 15.0 98.42      
07:00 19.4 12.5 64   21 11 24.1 98.39     Mostly Cloudy
08:00 19.0 11.8 63   22 15 24.1 98.35     Cloudy
09:00 18.3 11.7 65   20 20 16.1 98.36     Rain Showers
10:00 18.4 12.1 67   19 15 24.1 98.30     Cloudy
11:00 17.3 13.5 78   19 13 19.3 98.30     Rain
12:00 19.8 15.2 75   19 13 24.1 98.27     Cloudy
13:00 22.6 16.4 68   20 11 24.1 98.21 27   Mostly Cloudy
14:00 22.6 15.7 65   21 17 24.1 98.19 27   Mostly Cloudy
15:00 24.0 16.4 62   21 17 24.1 98.16 29   Mostly Cloudy
16:00 24.4 16.2 60   24 15 24.1 98.15 29   Mainly Clear
17:00 23.9 16.0 61   24 9 15.0 98.16 29    
18:00 23.9 16.4 63   23 7 15.0 98.16 29    
19:00 22.7 16.0 66   21 6 15.0 98.18 27    
20:00 20.6 15.5 73   20 7 15.0 98.21 25    
21:00 18.1 15.3 84   20 6 15.0 98.25      
22:00 19.3 15.5 79   20 6 15.0 98.23      
23:00 19.0 15.2 79   20 7 15.0 98.25      

Notes on Data Quality.

Legend

  • E = Estimated
  • M = Missing
  • NA = Not Available*
  • [empty] = Indicates an unobserved value
Date modified: